This is the latest recevied weather packets stored in our database for station/object W8CWV-13. If no packets are shown the sender has not sent any weather packets the latest 10 day(s).
| Time | Temp. | Humidity | Pressure | Rain* | Wind** | Luminosity | Snow |
|---|---|---|---|---|---|---|---|
| 1777479662 | 14.44° C | 100% | 1001.6 hPa | - | - | - | - |
| 1777479090 | 14.44° C | 100% | 1002 hPa | - | - | - | - |
| 1777478512 | 13.89° C | 100% | 1003.8 hPa | - | - | - | - |
| 1777477946 | 13.89° C | 100% | 1006.6 hPa | - | - | - | - |
| 1777477371 | 14.44° C | 100% | 1009.6 hPa | - | - | - | - |
| 1777476797 | 14.44° C | 100% | 1012.6 hPa | - | - | - | - |
| 1777476224 | 15° C | 100% | 1013.1 hPa | - | - | - | - |
| 1777475652 | 14.44° C | 100% | 1013.5 hPa | - | - | - | - |
| 1777475073 | 14.44° C | 100% | 1014.1 hPa | - | - | - | - |
| 1777474502 | 14.44° C | 100% | 1015 hPa | - | - | - | - |
| 1777473931 | 14.44° C | 100% | 1016 hPa | - | - | - | - |
| 1777473358 | 14.44° C | 100% | 1016.9 hPa | - | - | - | - |
| 1777472790 | 15° C | 100% | 1018.1 hPa | - | - | - | - |
| 1777472215 | 15° C | 100% | 1018.4 hPa | - | - | - | - |
| 1777471642 | 15° C | 100% | 1018 hPa | - | - | - | - |
| 1777471069 | 15° C | 100% | 1016.8 hPa | - | - | - | - |
| 1777470498 | 14.44° C | 100% | 1015.2 hPa | - | - | - | - |
| 1777469922 | 14.44° C | 100% | 1013.4 hPa | - | - | - | - |
| 1777469350 | 13.89° C | 100% | 1011.4 hPa | - | - | - | - |
| 1777468776 | 13.33° C | 100% | 1009.5 hPa | - | - | - | - |
| 1777468205 | 13.33° C | 100% | 1006.9 hPa | - | - | - | - |
| 1777467632 | 13.33° C | 100% | 1004.7 hPa | - | - | - | - |
| 1777467059 | 13.33° C | 100% | 1003.9 hPa | - | - | - | - |
| 1777466483 | 12.78° C | 100% | 1004.8 hPa | - | - | - | - |
| 1777465917 | 12.78° C | 100% | 1006 hPa | - | - | - | - |
* Rain since midnight (hover to see other rain measurements)
** Current wind speed in m/s (hover to see current wind gust speed)